Showing default

HYPERFIELD-1B, 64552

Orbit data source: Space-Track

HYPERFIELD-1B, 64552 is a payload satellite owned by Kuva Space (FI) in SSO that was launched on Mon, 23 Jun 2025 UTC via an FALCON 9 launch vehicle from the Air Force Western Test Range (AFWTR). Payload-class satellites include a variety of spacecraft equipped with specific instruments for various scientific and technological missions. These include communications satellites like Starlink; space stations such as the ISS; scientific satellites like the Hubble; Earth observation satellites from companies like Planet Labs, Umbra, and HawkEye 360; GPS; miniature CubeSats for education and research; and military/defense satellites.

Loading next visibility...
Identifier
64552, 2025-135AA
Orbit
SSO
Country
Flag of FIFI / FIN
Related business
Manufacturer
Kuva Space
Mission
Operational Commercial Imaging
Bus & Motor
CUBESAT 6U, Unknown motor
Mass
12 kg wet, 12 kg dry
Launch date (UTC)
2025-06-23 (7 months ago)
Launch vehicle
FALCON 9
Launch site
Air Force Western Test Range (AFWTR)
Object type
Payload
Rocket body
Debris
Shape & HBR
Box + 2 Pan, 0.2 m
Radar Cross Section
0.092 m², Medium (>0.1 m² and < 1m²)

Expand to show TLE details & history
Last TLE update: 7 hours ago

TLE from 7 hours ago
0 HYPERFIELD-1B
1 64552U 25135AA  26036.15509140  .00008063  00000-0  36656-3 0  9996
2 64552  97.4531 152.6170 0002057  70.9969 289.1490 15.21004214 34807
Epoch: 2026-02-05T03:43Z
TLE epoch observation values (Epoch: 2026-02-05T03:43:19.896Z)
Latitude
0.00002°
Longitude
-38.52728°
Altitude
505.436 km
Speed
7.612 km/s
True Right ascension
10h 10m 28s
True Declination
0° 00' 00"
Sunlit
Object was in full shadow at epoch
Visualization orbit readout
Latitude
Unknown
Longitude
Unknown
Altitude
Unknown
Speed
Unknown
Apparent Right ascension
Unknown
Apparent Declination
Unknown
Sunlit
N/A
Visualization observer readout
Local Sidereal Time
12:31:08
Azimuth
Unknown
Elevation
Unknown
Doppler factor
Unknown
Orbital elements
Apogee altitude
501.192 km
Perigee altitude
498.362 km
Semi-major axis
6,877.914 km
Eccentricity
0.00021
Inclination
97.4531°
RAAN
152.617°
Arg. of periapsis
70.9969°
True anomaly
289.12673°
Mean anomaly
289.149°
Eccentric anomaly
289.13787°
Mean motion
3.80503 °/min
Orbital period
94.61 mins
BSTAR
0.00036656
Loading maneuver chart data...
Computing Atmospheric mass density...
Loading historical data...
Loading historical data...
Loading historical data...
Loading historical data...
Loading historical data...
Loading historical data...
Loading historical data...

Documentation

Showing up to 5 results
|